User: anonymous   Login
Location: *
(43.9900°N, 3.4811°E)
Time: 09:12:33
(UTC+00:00)
Language:

TSX-5 - Orbit

View from above orbital plane
View from above orbital plane
View from above satellite
View from above satellite

Ground track
Ground track

The orbit data is extracted from the following two-line orbital elements,

1 26374U 00030A   19292.72906361 +.00000224 +00000-0 +28357-4 0  9999
2 26374 068.9295 346.8596 0641397 021.6817 341.0169 14.07241474976245
Epoch (UTC): 19 October 2019 17:29:51
Eccentricity: 0.0641397
inclination: 68.9295°
perigee height: 404 km
apogee height: 1333 km
right ascension of ascending node: 346.8596°
argument of perigee: 21.6817°
revolutions per day: 14.07241474
mean anomaly at epoch: 341.0169°
orbit number at epoch: 97624

The dashed part of the orbit path shows where the satellite is in the earth's shadow,  

DLR